Flag for U.S.A. Weather past 2 weeks in Mountain View, California, U.S.A.

Now
65 °F

Overcast.


Feels Like: 65 °F
Forecast: 60 / 69 °F
Wind: 10 mph from Southeast

Location: Moffett Field

Current Time: Oct 25, 2014 at 5:25:22 AM

Latest Report: Oct 25, 2014 at 4:56 AM


Visibility: 10 mi

Pressure: 29.93 "Hg

Humidity: 78%

Dew point: 58 °F

Location of Mountain ViewLocation

Historic Weather in Mountain View — Graph

°F

Mountain View temperature yesterday

Maximum temperature yesterday: 73 °F (at 12:56 PM)
Minimum temperature yesterday: 55 °F (at 4:56 AM)
Average temperature yesterday: 64 °F

Past Weeks' High & Low Weather Summary

 TemperatureHumidityPressure
High89 °F (Oct 12, 3:56 PM)100% (Oct 11, 12:56 AM)30.13 "Hg (Oct 11, 12:56 AM)
Low52 °F (Oct 22, 6:56 AM)11% (Oct 12, 4:56 PM)29.83 "Hg (Oct 14, 6:03 PM)
Average65 °F70%29.98 "Hg
* Reported Oct 10 3:56 AM — Oct 25 3:56 AM, Mountain View, Weather by CustomWeather, © 2014

Note: Actual official high and low records may vary slightly from our data, if they occured in-between our weather recording intervals... More about our weather records

Advertising

Mountain View weather history for previous 24 hours

 ConditionsComfort  
Time TempWeatherWind HumidityBarometerVisibility
3:56 AM
Oct 25
67 °FPassing clouds.13 mph66%29.93 "Hg10 mi
2:56 AM65 °FClear.6 mph73%29.94 "Hg10 mi
1:56 AM65 °FMostly cloudy.7 mph70%29.95 "Hg10 mi
12:56 AM65 °FOvercast.13 mph76%29.95 "Hg10 mi
11:56 PM
Oct 24
65 °FPassing clouds.15 mph81%29.96 "Hg10 mi
10:56 PM64 °FClear.8 mph84%29.94 "Hg10 mi
9:56 PM63 °FClear.No wind78%29.93 "Hg10 mi
8:56 PM64 °FClear.9 mph84%29.93 "Hg10 mi
7:56 PM65 °FClear.7 mph70%29.92 "Hg10 mi
6:56 PM66 °FSunny.6 mph78%29.89 "Hg10 mi
5:56 PM68 °FSunny.9 mph68%29.89 "Hg10 mi
4:56 PM71 °FSunny.10 mph63%29.89 "Hg10 mi
3:56 PM70 °FSunny.14 mph64%29.90 "Hg10 mi
2:56 PM72 °FSunny.12 mph59%29.90 "Hg10 mi
1:56 PM72 °FSunny.12 mph55%29.91 "Hg10 mi
12:56 PM73 °FSunny.8 mph53%29.93 "Hg10 mi
11:56 AM70 °FSunny.5 mph59%29.96 "Hg10 mi
10:56 AM67 °FSunny.3 mph68%29.97 "Hg10 mi
9:56 AM64 °FSunny.No wind75%29.98 "Hg10 mi
8:56 AM60 °FSunny.3 mph93%29.99 "Hg10 mi
7:56 AM56 °FClear.No wind93%29.98 "Hg10 mi
6:56 AM55 °FClear.No wind96%29.97 "Hg10 mi
5:56 AM56 °FClear.No wind93%29.97 "Hg10 mi
Weather by CustomWeather, © 2014

See weather overviewHow to use our weather pages